Weather in Karabalta

Kyrgyzstan     42°49′11″N   73°50′38″E
temp.,
°C
wind,
m/s
gust,
m/s
humid.,
%
clouds,
%
prec.,
mm/h
press.,
hPa
HPBL,
m
12 august, fri
fri1200:00+18ssw11562 0.4 101311
03:00+16s22600 0.0 101315
06:00+16ssw22560 0.0 101312
09:00+21nne22410 0.0 1013591
12:00+26nne43321 0.0 10121750
15:00+28n43275 0.1 10102355
18:00+28nne322610 0.1 10102432
21:00+21s32380 0.0 101216
13 august, sat
sat1300:00+19ssw32413 0.0 101218
03:00+18sw22443 0.0 101114
06:00+17ssw22432 0.0 101212
09:00+23nnw22330 0.0 1012455
12:00+27n42260 0.0 10101477
15:00+30n43220 0.0 10092246
18:00+30n32220 0.0 10092460
21:00+23ssw33340 0.0 101025
14 august, sun
sun1400:00+21ssw32370 0.0 100922
03:00+20ssw22380 0.0 100813
06:00+19s22350 0.0 100812
09:00+25nne21280 0.0 1008363
12:00+30n32220 0.0 10071343
15:00+33n42180 0.0 10052124
18:00+33n32160 0.0 10042392
21:00+24s33270 0.0 100722
15 august, mon
mon1500:00+23ssw32300 0.0 100518
03:00+22sw22310 0.0 100513
06:00+21sw22310 0.0 100513
09:00+26nw33240 0.0 1006384
12:00+31nnw43190 0.0 10051291
15:00+33nnw43150 0.1 10032303
18:00+33n32141 0.1 10032780
21:00+23ssw232722 0.0 100715
16 august, tue
tue1600:00+22sw223470 0.2 100615
03:00+19sw22410 0.1 100615
06:00+19sw22441 0.1 100713
09:00+23nw33361 0.1 1008312
12:00+26nnw43282 0.4 1008880
15:00+30n431753 0.2 10062294
18:00+29nne33172 0.3 10062577
21:00+20s22283 0.0 101012